WB4FAY-4 Weather Reports


time (UTC)temp
C
wind
direction
speed
KPH
gust
KPH
rain 1hr
cm
rain 24hr
cm
rain mn
cm
humidity
%
barometer
mb
20260506082018 20 199 6.4 11.3 0.00 0.00 0.00 81 1012.5
20260506081517 20 191 4.8 8.0 0.00 0.00 0.00 80 1012.6
20260506081018 20 241 3.2 9.7 0.00 0.00 0.00 80 1012.6
20260506080517 20 229 4.8 8.0 0.00 0.00 0.00 80 1012.6
20260506073517 21 205 0.0 11.3 0.00 0.00 0.00 77 1012.7
20260506073017 21 230 6.4 8.0 0.00 0.00 0.00 77 1012.6
20260506072517 21 208 4.8 8.0 0.00 0.00 0.00 77 1012.6
20260506072017 21 199 6.4 6.4 0.00 0.00 0.00 77 1012.6
20260506071518 21 234 4.8 6.4 0.00 0.00 0.00 76 1012.7
20260506071017 21 258 3.2 9.7 0.00 0.00 0.00 76 1012.6
20260506070518 21 188 8.0 8.0 0.00 0.00 0.00 76 1012.8
20260506062517 21 188 3.2 9.7 0.00 0.00 0.00 74 1013.0
20260506062017 21 212 4.8 9.7 0.00 0.00 0.00 74 1013.1
20260506061517 21 202 6.4 4.8 0.00 0.00 0.00 73 1013.2
20260506061017 21 272 3.2 9.7 0.00 0.00 0.00 73 1013.3
20260506060517 21 203 3.2 9.7 0.00 0.00 0.00 73 1013.3
20260506051017 21 203 4.8 11.3 0.00 0.00 0.00 71 1013.3
20260506050517 22 200 4.8 11.3 0.00 0.00 0.00 71 1013.2
20260506045017 22 200 3.2 11.3 0.00 0.00 0.00 71 1013.3
20260506044517 22 200 4.8 9.7 0.00 0.00 0.00 70 1013.2
20260506044017 22 184 3.2 12.9 0.00 0.00 0.00 70 1013.1
20260506043517 22 199 11.3 9.7 0.00 0.00 0.00 70 1013.1
20260506043017 22 229 6.4 12.9 0.00 0.00 0.00 70 1013.0
20260506042517 22 264 4.8 8.0 0.00 0.00 0.00 69 1012.9
20260506042017 22 189 3.2 16.1 0.00 0.00 0.00 69 1013.0
20260506041517 22 195 4.8 12.9 0.00 0.00 0.00 69 1013.1
20260506041017 22 178 4.8 12.9 0.00 0.00 0.00 69 1013.2
20260506040517 22 199 3.2 11.3 0.00 0.00 0.00 69 1013.1
20260506040017 22 224 1.6 11.3 0.00 0.00 0.00 69 1013.1
20260506035518 22 189 4.8 16.1 0.00 0.00 0.00 68 1013.2
20260506035017 22 186 3.2 11.3 0.00 0.00 0.00 68 1013.2
20260506034517 22 199 3.2 14.5 0.00 0.00 0.00 68 1013.1
20260506034017 22 217 3.2 8.0 0.00 0.00 0.00 67 1013.1
20260506033517 22 191 3.2 8.0 0.00 0.00 0.00 67 1013.0
20260506033017 22 258 1.6 8.0 0.00 0.00 0.00 68 1013.1
20260506032517 22 229 4.8 6.4 0.00 0.00 0.00 68 1013.4
20260506032017 22 251 3.2 9.7 0.00 0.00 0.00 68 1013.3
20260506031523 21 0 0.0 0.0 0.00 0.00 0.00 68 1013.2
20260506031017 21 0 0.0 0.0 0.00 0.00 0.00 69 1012.9
20260506030517 21 0 0.0 0.0 0.00 0.00 0.00 68 1012.8
20260506030017 21 0 0.0 0.0 0.00 0.00 0.00 68 1012.7
20260506025517 21 0 0.0 0.0 0.00 0.00 0.00 67 1012.6
20260506025017 21 0 0.0 0.0 0.00 0.00 0.00 67 1012.6
20260506024517 21 0 0.0 0.0 0.00 0.00 0.00 66 1012.7
20260506024018 21 0 0.0 0.0 0.00 0.00 0.00 66 1012.7
20260506023517 21 0 0.0 0.0 0.00 0.00 0.00 66 1012.7
20260506023017 21 0 0.0 0.0 0.00 0.00 0.00 65 1012.7
20260506022517 22 0 0.0 0.0 0.00 0.00 0.00 65 1012.6
20260506022017 22 0 0.0 0.0 0.00 0.00 0.00 65 1012.6
20260506021517 22 0 0.0 0.0 0.00 0.00 0.00 65 1012.5
20260506021018 22 0 0.0 0.0 0.00 0.00 0.00 65 1012.5
20260506020517 22 0 0.0 0.0 0.00 0.00 0.00 65 1012.6
20260506020017 22 0 0.0 0.0 0.00 0.00 0.00 65 1012.5
20260506015517 22 0 0.0 0.0 0.00 0.00 0.00 65 1012.6
20260506015018 22 0 0.0 0.0 0.00 0.00 0.00 64 1012.5
20260506014517 22 0 0.0 0.0 0.00 0.00 0.00 64 1012.3
20260506014017 22 0 0.0 0.0 0.00 0.00 0.00 64 1012.4
20260506013517 22 0 0.0 0.0 0.00 0.00 0.00 64 1012.5
20260506013017 22 0 0.0 0.0 0.00 0.00 0.00 64 1012.5
20260506012517 22 0 0.0 0.0 0.00 0.00 0.00 65 1012.6
20260506012018 22 0 0.0 0.0 0.00 0.00 0.00 65 1012.8
20260506011518 22 0 0.0 0.0 0.00 0.00 0.00 65 1012.8
20260506011018 22 0 0.0 0.0 0.00 0.00 0.00 64 1012.6
20260506010518 22 0 0.0 0.0 0.00 0.00 0.00 63 1012.6
20260506010018 22 0 0.0 0.0 0.00 0.00 0.00 62 1012.5
20260506005518 22 0 0.0 0.0 0.00 0.00 0.00 61 1012.5
20260506005018 23 0 0.0 0.0 0.00 0.00 0.00 60 1012.6
20260506004518 23 0 0.0 0.0 0.00 0.00 0.00 60 1012.4
20260506004018 23 0 0.0 0.0 0.00 0.00 0.00 59 1012.3
20260506003518 23 0 0.0 0.0 0.00 0.00 0.00 58 1012.2
20260506003017 23 0 0.0 0.0 0.00 0.00 0.00 57 1012.2
20260506002518 23 0 0.0 0.0 0.00 0.00 0.00 57 1012.3
20260506002018 24 0 0.0 0.0 0.00 0.00 0.00 57 1012.4
20260506001518 24 0 0.0 0.0 0.00 0.00 0.00 57 1012.5
20260506001018 24 0 0.0 0.0 0.00 0.00 0.00 56 1012.6
20260506000518 24 0 0.0 0.0 0.00 0.00 0.00 56 1012.8
20260506000017 24 0 0.0 0.0 0.00 0.00 0.00 56 1012.8
20260505235518 24 0 0.0 0.0 0.00 0.00 0.00 56 1012.7
20260505235017 24 0 0.0 0.0 0.00 0.00 0.00 55 1012.6
20260505234517 24 0 0.0 0.0 0.00 0.00 0.00 55 1012.5
20260505234017 24 0 0.0 0.0 0.00 0.00 0.00 55 1012.6
20260505233517 24 0 0.0 0.0 0.00 0.00 0.00 54 1012.7
20260505233017 24 0 0.0 0.0 0.00 0.00 0.00 54 1012.8
20260505232517 25 0 0.0 0.0 0.00 0.00 0.00 54 1012.9
20260505232018 25 0 0.0 0.0 0.00 0.00 0.00 54 1013.0
20260505231518 25 0 0.0 0.0 0.00 0.00 0.00 54 1012.9
20260505231018 25 182 0.0 6.4 0.00 0.00 0.00 53 1013.0
20260505230518 25 248 0.0 6.4 0.00 0.00 0.00 54 1012.9
20260505230017 25 196 0.0 6.4 0.00 0.00 0.00 54 1013.0
20260505225518 25 191 0.0 6.4 0.00 0.00 0.00 54 1013.0
20260505225017 25 186 3.2 4.8 0.00 0.00 0.00 53 1013.1
20260505224517 25 179 0.0 4.8 0.00 0.00 0.00 53 1013.2
20260505224017 25 227 0.0 4.8 0.00 0.00 0.00 54 1013.1
20260505223517 25 205 0.0 9.7 0.00 0.00 0.00 53 1013.1
20260505223018 25 260 6.4 4.8 0.00 0.00 0.00 53 1013.1
20260505222517 25 192 4.8 6.4 0.00 0.00 0.00 53 1013.1
20260505222017 25 230 0.0 6.4 0.00 0.00 0.00 53 1013.1
20260505221517 25 199 1.6 12.9 0.00 0.00 0.00 53 1013.1
20260505221017 25 193 0.0 12.9 0.00 0.00 0.00 53 1013.1
20260505220517 25 258 1.6 8.0 0.00 0.00 0.00 53 1013.1
20260505220017 25 263 1.6 8.0 0.00 0.00 0.00 52 1013.1
20260505215517 25 198 0.0 12.9 0.00 0.00 0.00 52 1013.1
20260505215017 25 178 6.4 16.1 0.00 0.00 0.00 51 1013.2
20260505214517 25 232 3.2 8.0 0.00 0.00 0.00 52 1013.2
20260505214017 25 215 6.4 4.8 0.00 0.00 0.00 54 1013.2
20260505213517 25 200 0.0 8.0 0.00 0.00 0.00 53 1013.2
20260505213018 25 203 0.0 11.3 0.00 0.00 0.00 52 1013.2
20260505212517 25 229 0.0 9.7 0.00 0.00 0.00 51 1013.2
20260505212018 25 251 6.4 12.9 0.00 0.00 0.00 51 1013.1
20260505211517 25 205 6.4 9.7 0.00 0.00 0.00 52 1013.0
20260505211017 25 308 0.0 9.7 0.00 0.00 0.00 50 1013.1
20260505210518 25 196 1.6 14.5 0.00 0.00 0.00 52 1013.1
20260505210017 25 233 4.8 12.9 0.00 0.00 0.00 51 1013.1
20260505205517 25 210 3.2 8.0 0.00 0.00 0.00 51 1013.1
20260505205016 25 188 4.8 14.5 0.00 0.00 0.00 50 1013.3
20260505204517 25 224 11.3 16.1 0.00 0.00 0.00 51 1013.3
20260505204018 25 222 8.0 14.5 0.00 0.00 0.00 51 1013.1
20260505203517 25 206 12.9 11.3 0.00 0.00 0.00 50 1013.3
20260505203017 25 261 8.0 9.7 0.00 0.00 0.00 55 1013.3
20260505202517 25 203 4.8 8.0 0.00 0.00 0.00 54 1013.3
20260505202017 25 234 0.0 6.4 0.00 0.00 0.00 53 1013.3
20260505201517 25 0 0.0 0.0 0.00 0.00 0.00 54 1013.6
20260505201017 25 196 0.0 9.7 0.00 0.00 0.00 53 1013.7
20260505200517 24 196 6.4 8.0 0.00 0.00 0.00 56 1013.8
20260505200017 24 223 0.0 9.7 0.00 0.00 0.00 55 1014.0
20260505195518 24 239 6.4 9.7 0.00 0.00 0.00 53 1014.0
20260505195017 24 268 0.0 11.3 0.00 0.00 0.00 55 1014.1
20260505194517 24 234 0.0 14.5 0.00 0.00 0.00 53 1014.2
20260505194018 24 258 0.0 4.8 0.00 0.00 0.00 57 1014.1
20260505193517 24 257 1.6 4.8 0.00 0.00 0.00 53 1014.2
20260505193017 25 265 1.6 8.0 0.00 0.00 0.00 54 1014.4
20260505192517 24 62 4.8 6.4 0.00 0.00 0.00 56 1014.2
20260505192017 24 257 0.0 6.4 0.00 0.00 0.00 56 1014.2
20260505191517 24 241 3.2 6.4 0.00 0.00 0.00 55 1014.3
20260505191018 24 274 3.2 6.4 0.00 0.00 0.00 57 1014.4
20260505190517 23 232 6.4 8.0 0.00 0.00 0.00 55 1014.5
20260505190017 23 325 0.0 8.0 0.00 0.00 0.00 53 1014.6
20260505185517 23 296 0.0 6.4 0.00 0.00 0.00 55 1014.6
20260505185017 23 248 0.0 9.7 0.00 0.00 0.00 55 1014.7
20260505184517 23 234 0.0 6.4 0.00 0.00 0.00 57 1014.8
20260505184017 23 185 0.0 6.4 0.00 0.00 0.00 55 1014.8
20260505183517 23 288 3.2 8.0 0.00 0.00 0.00 57 1014.8
20260505183018 23 41 1.6 9.7 0.00 0.00 0.00 59 1014.9
20260505182517 23 329 0.0 4.8 0.00 0.00 0.00 59 1015.0
20260505182017 23 219 0.0 16.1 0.00 0.00 0.00 58 1015.0
20260505181517 23 198 0.0 14.5 0.00 0.00 0.00 56 1015.0
20260505181017 23 213 8.0 11.3 0.00 0.00 0.00 53 1015.1
20260505180517 23 209 6.4 9.7 0.00 0.00 0.00 58 1015.2
20260505180017 23 250 3.2 8.0 0.00 0.00 0.00 56 1015.2
20260505175517 23 217 0.0 9.7 0.00 0.00 0.00 57 1015.2
20260505175019 23 182 0.0 11.3 0.00 0.00 0.00 58 1015.3
20260505174519 23 206 3.2 8.0 0.00 0.00 0.00 59 1015.5
20260505174019 22 278 6.4 8.0 0.00 0.00 0.00 57 1015.5
20260505173519 22 226 3.2 9.7 0.00 0.00 0.00 58 1015.6
20260505173019 22 232 0.0 8.0 0.00 0.00 0.00 56 1015.6
20260505172518 23 213 0.0 9.7 0.00 0.00 0.00 57 1015.6
20260505172019 23 35 3.2 12.9 0.00 0.00 0.00 57 1015.6
20260505171519 22 322 0.0 4.8 0.00 0.00 0.00 60 1015.6
20260505171018 22 0 0.0 0.0 0.00 0.00 0.00 59 1015.8
20260505170519 22 217 0.0 11.3 0.00 0.00 0.00 59 1015.8
20260505170018 22 278 3.2 4.8 0.00 0.00 0.00 60 1015.9
20260505165519 22 219 0.0 8.0 0.00 0.00 0.00 57 1015.9
20260505165018 22 237 0.0 8.0 0.00 0.00 0.00 59 1016.0
20260505164518 22 195 3.2 6.4 0.00 0.00 0.00 59 1015.9
20260505164018 22 202 3.2 8.0 0.00 0.00 0.00 59 1015.9
20260505163518 22 230 3.2 11.3 0.00 0.00 0.00 58 1015.9
20260505163019 22 189 4.8 12.9 0.00 0.00 0.00 60 1015.9
20260505162518 21 205 6.4 11.3 0.00 0.00 0.00 59 1016.0
20260505162018 21 0 0.0 0.0 0.00 0.00 0.00 63 1015.9
20260505161518 21 196 0.0 11.3 0.00 0.00 0.00 62 1016.0
20260505161018 21 304 0.0 11.3 0.00 0.00 0.00 62 1016.0
20260505160518 21 195 1.6 11.3 0.00 0.00 0.00 61 1015.9
20260505153017 20 182 3.2 11.3 0.00 0.00 0.00 63 1016.1
20260505152518 21 233 0.0 9.7 0.00 0.00 0.00 65 1016.3
20260505152017 20 254 4.8 9.7 0.00 0.00 0.00 66 1016.3
20260505151518 20 199 0.0 6.4 0.00 0.00 0.00 65 1016.2
20260505151017 20 250 6.4 6.4 0.00 0.00 0.00 67 1016.2
20260505150517 20 302 4.8 9.7 0.00 0.00 0.00 66 1016.2
20260505140517 18 206 4.8 9.7 0.00 0.00 0.00 73 1016.4
20260505125017 15 0 0.0 0.0 0.00 0.00 0.00 89 1015.7
20260505124517 14 0 0.0 0.0 0.00 0.00 0.00 90 1015.6
20260505124017 14 0 0.0 0.0 0.00 0.00 0.00 91 1015.5
20260505123518 14 128 0.0 3.2 0.00 0.00 0.00 92 1015.4
20260505123017 13 0 0.0 0.0 0.00 0.00 0.00 92 1015.3
20260505122517 13 0 0.0 0.0 0.00 0.00 0.00 93 1015.2
20260505122018 13 157 0.0 1.6 0.00 0.00 0.00 93 1015.1
20260505121517 13 0 0.0 0.0 0.00 0.00 0.00 92 1015.1
20260505121018 13 0 0.0 0.0 0.00 0.00 0.00 93 1015.1
20260505120517 13 0 0.0 0.0 0.00 0.00 0.00 93 1015.3
20260505120017 12 0 0.0 0.0 0.00 0.00 0.00 92 1015.2
20260505115517 12 0 0.0 0.0 0.00 0.00 0.00 92 1015.1
20260505115017 12 0 0.0 0.0 0.00 0.00 0.00 92 1014.9
20260505114517 12 0 0.0 0.0 0.00 0.00 0.00 92 1015.0
20260505114018 12 0 0.0 0.0 0.00 0.00 0.00 92 1014.9
20260505113517 12 0 0.0 0.0 0.00 0.00 0.00 92 1015.0
20260505113017 12 0 0.0 0.0 0.00 0.00 0.00 92 1014.9
20260505112517 12 0 0.0 0.0 0.00 0.00 0.00 91 1014.7
20260505112017 12 0 0.0 0.0 0.00 0.00 0.00 91 1014.6
20260505111517 12 0 0.0 0.0 0.00 0.00 0.00 91 1014.6
20260505111017 12 0 0.0 0.0 0.00 0.00 0.00 91 1014.5
20260505110517 12 0 0.0 0.0 0.00 0.00 0.00 91 1014.4
20260505102017 13 0 0.0 0.0 0.00 0.00 0.00 88 1014.2
20260505101518 13 0 0.0 0.0 0.00 0.00 0.00 88 1014.3
20260505101018 13 0 0.0 0.0 0.00 0.00 0.00 88 1014.3
20260505100517 13 0 0.0 0.0 0.00 0.00 0.00 87 1014.4
20260505100018 13 0 0.0 0.0 0.00 0.00 0.00 87 1014.3
20260505095518 13 0 0.0 0.0 0.00 0.00 0.00 87 1014.3
20260505095017 13 0 0.0 0.0 0.00 0.00 0.00 86 1014.4
20260505094517 13 0 0.0 0.0 0.00 0.00 0.00 86 1014.4
20260505094017 13 0 0.0 0.0 0.00 0.00 0.00 86 1014.5
20260505093517 13 0 0.0 0.0 0.00 0.00 0.00 86 1014.5
20260505093017 13 0 0.0 0.0 0.00 0.00 0.00 85 1014.5
20260505092518 13 0 0.0 0.0 0.00 0.00 0.00 85 1014.4
20260505092018 13 0 0.0 0.0 0.00 0.00 0.00 85 1014.4
20260505091518 13 0 0.0 0.0 0.00 0.00 0.00 84 1014.6
20260505091017 14 0 0.0 0.0 0.00 0.00 0.00 84 1014.6
20260505090518 14 0 0.0 0.0 0.00 0.00 0.00 83 1014.6
20260505090017 14 0 0.0 0.0 0.00 0.00 0.00 83 1014.6
20260505085518 14 0 0.0 0.0 0.00 0.00 0.00 83 1014.7
20260505085017 14 0 0.0 0.0 0.00 0.00 0.00 82 1014.7
20260505084517 14 0 0.0 0.0 0.00 0.00 0.00 82 1014.6
20260505084017 14 0 0.0 0.0 0.00 0.00 0.00 82 1014.6
20260505083518 15 0 0.0 0.0 0.00 0.00 0.00 81 1014.6
20260505083018 15 0 0.0 0.0 0.00 0.00 0.00 81 1014.7
20260505082517 15 0 0.0 0.0 0.00 0.00 0.00 81 1014.8